Location: Orange
(33.2833°S, 149.1000°E)
Time: 00:20:08
(UTC+11:00)

ISS - Visible Passes

Search period start: 05 October 2022 00:00
Search period end: 15 October 2022 00:00
Orbit: 415 x 419 km, 51.6° (Epoch: 04 October)

Date Brightness Start Highest point End Pass type
(mag) Time Alt. Az. Time Alt. Az. Time Alt. Az.
09 Oct -0.9 05:29:42 10° SSW 05:32:06 18° SSE 05:34:28 10° ESE visible
10 Oct -0.6 04:42:20 10° S 04:43:39 12° SSE 04:44:57 10° SE visible
11 Oct -2.6 05:29:15 10° SW 05:32:33 46° SE 05:35:49 10° ENE visible
12 Oct -1.6 04:41:41 13° SSW 04:44:11 26° SE 04:47:06 10° E visible
13 Oct -0.7 03:56:24 16° SE 03:56:24 16° SE 03:58:00 10° ESE visible
13 Oct -3.5 05:29:23 10° WSW 05:32:39 47° NW 05:35:54 10° NNE visible
13 Oct -3.1 20:32:20 10° NNW 20:35:01 37° NNE 20:35:01 37° NNE visible
14 Oct -3.7 04:44:32 78° ENE 04:44:32 78° ENE 04:47:44 10° NE visible
14 Oct -2.3 19:44:42 10° N 19:47:17 21° NE 19:49:54 10° ESE visible
14 Oct -1.8 21:20:52 10° W 21:23:42 29° SW 21:23:42 29° SW visible
